Previsão horária em Abilene

Hoje, 18 Maio, Terça-feira

Tempo Temperatura Precipitação Vento Pressão Humidade
00:00 +20°C° 4.9 mm 5 m/s 710 mmHg 92%
01:00 +20°C° 4.9 mm 5 m/s 710 mmHg 91%
02:00 +20°C° 4.9 mm 4 m/s 710 mmHg 90%
03:00 +20°C° 1.7 mm 4 m/s 710 mmHg 89%
04:00 +19°C° 1.7 mm 3 m/s 711 mmHg 88%
05:00 +19°C° 1.7 mm 3 m/s 711 mmHg 87%
06:00 +20°C° 0.1 mm 4 m/s 711 mmHg 81%
07:00 +22°C° 0.1 mm 5 m/s 711 mmHg 75%
08:00 +23°C° 0.1 mm 6 m/s 712 mmHg 69%
09:00 +24°C° 0 mm 6 m/s 711 mmHg 67%
10:00 +26°C° 0 mm 6 m/s 711 mmHg 64%
11:00 +26°C° 0 mm 7 m/s 711 mmHg 62%
12:00 +26°C° 0.1 mm 6 m/s 711 mmHg 63%
13:00 +27°C° 0.1 mm 6 m/s 710 mmHg 63%
14:00 +27°C° 0.1 mm 5 m/s 710 mmHg 64%
15:00 +27°C° 0 mm 5 m/s 710 mmHg 62%
16:00 +28°C° 0 mm 4 m/s 709 mmHg 60%
17:00 +29°C° 0 mm 3 m/s 709 mmHg 58%
18:00 +27°C° 0 mm 4 m/s 709 mmHg 65%
19:00 +25°C° 0 mm 5 m/s 709 mmHg 72%
20:00 +23°C° 0 mm 6 m/s 709 mmHg 78%
21:00 +22°C° 0 mm 7 m/s 709 mmHg 79%
22:00 +22°C° 0 mm 7 m/s 710 mmHg 80%
23:00 +21°C° 0 mm 7 m/s 710 mmHg 81%

Amanhã, 19 Maio, Quarta-feira

Tempo Temperatura Precipitação Vento Pressão Humidade
00:00 +21°C° 0 mm 7 m/s 710 mmHg 83%
01:00 +21°C° 0 mm 7 m/s 710 mmHg 85%
02:00 +20°C° 0 mm 6 m/s 710 mmHg 87%
03:00 +20°C° 0 mm 6 m/s 710 mmHg 88%
04:00 +20°C° 0 mm 5 m/s 710 mmHg 89%
05:00 +20°C° 0 mm 5 m/s 711 mmHg 90%
06:00 +22°C° 0 mm 5 m/s 711 mmHg 84%
07:00 +23°C° 0 mm 5 m/s 711 mmHg 78%
08:00 +26°C° 0 mm 5 m/s 712 mmHg 72%
09:00 +28°C° 0.1 mm 5 m/s 712 mmHg 64%
10:00 +29°C° 0.1 mm 4 m/s 712 mmHg 57%
11:00 +32°C° 0.1 mm 4 m/s 712 mmHg 49%
12:00 +29°C° 1.4 mm 6 m/s 712 mmHg 56%
13:00 +28°C° 1.4 mm 8 m/s 711 mmHg 62%
14:00 +26°C° 1.4 mm 10 m/s 711 mmHg 69%
15:00 +24°C° 3.1 mm 9 m/s 711 mmHg 71%
16:00 +22°C° 3.1 mm 8 m/s 711 mmHg 74%
17:00 +21°C° 3.1 mm 6 m/s 712 mmHg 76%
18:00 +21°C° 0 mm 6 m/s 711 mmHg 79%
19:00 +21°C° 0 mm 6 m/s 711 mmHg 81%
20:00 +20°C° 0 mm 6 m/s 711 mmHg 83%
21:00 +20°C° 0.1 mm 5 m/s 712 mmHg 83%
22:00 +20°C° 0.1 mm 4 m/s 712 mmHg 84%
23:00 +20°C° 0.1 mm 3 m/s 713 mmHg 84%

Depois de amanhã, 20 Maio, Quinta-feira

Tempo Temperatura Precipitação Vento Pressão Humidade
00:00 +19°C° 0 mm 3 m/s 713 mmHg 87%
01:00 +19°C° 0 mm 3 m/s 712 mmHg 90%
02:00 +18°C° 0 mm 3 m/s 712 mmHg 92%
03:00 +18°C° 0 mm 3 m/s 713 mmHg 93%
04:00 +18°C° 0 mm 3 m/s 713 mmHg 93%
05:00 +18°C° 0 mm 3 m/s 714 mmHg 93%
06:00 +19°C° 0 mm 3 m/s 714 mmHg 87%
07:00 +20°C° 0 mm 2 m/s 714 mmHg 81%
08:00 +23°C° 0 mm 2 m/s 715 mmHg 75%
09:00 +24°C° 0 mm 2 m/s 715 mmHg 68%
10:00 +26°C° 0 mm 3 m/s 715 mmHg 61%
11:00 +28°C° 0 mm 3 m/s 715 mmHg 54%
12:00 +28°C° 0 mm 4 m/s 715 mmHg 52%
13:00 +29°C° 0 mm 4 m/s 715 mmHg 49%
14:00 +30°C° 0 mm 5 m/s 714 mmHg 47%
15:00 +29°C° 0 mm 5 m/s 714 mmHg 50%
16:00 +29°C° 0 mm 5 m/s 714 mmHg 54%
17:00 +28°C° 0 mm 5 m/s 714 mmHg 58%
18:00 +26°C° 0 mm 5 m/s 715 mmHg 64%
19:00 +25°C° 0 mm 5 m/s 715 mmHg 69%
20:00 +22°C° 0 mm 5 m/s 715 mmHg 75%
21:00 +22°C° 0 mm 5 m/s 715 mmHg 80%
22:00 +21°C° 0 mm 5 m/s 716 mmHg 85%
23:00 +20°C° 0 mm 5 m/s 716 mmHg 90%

21 Maio, Sexta-feira

Tempo Temperatura Precipitação Vento Pressão Humidade
00:00 +20°C° 0 mm 5 m/s 716 mmHg 92%
01:00 +19°C° 0 mm 4 m/s 716 mmHg 93%
02:00 +19°C° 0 mm 4 m/s 716 mmHg 95%
03:00 +19°C° 0 mm 4 m/s 716 mmHg 94%
04:00 +20°C° 0 mm 5 m/s 716 mmHg 93%
05:00 +20°C° 0 mm 5 m/s 716 mmHg 92%
06:00 +21°C° 0 mm 6 m/s 717 mmHg 87%
07:00 +22°C° 0 mm 6 m/s 717 mmHg 83%
08:00 +22°C° 0 mm 6 m/s 717 mmHg 79%
09:00 +23°C° 0.2 mm 6 m/s 718 mmHg 76%
10:00 +25°C° 0.2 mm 5 m/s 718 mmHg 74%
11:00 +25°C° 0.2 mm 5 m/s 718 mmHg 71%
12:00 +26°C° 0.3 mm 5 m/s 718 mmHg 68%
13:00 +27°C° 0.3 mm 6 m/s 717 mmHg 65%
14:00 +28°C° 0.3 mm 6 m/s 717 mmHg 61%
15:00 +28°C° 0.3 mm 6 m/s 717 mmHg 62%
16:00 +27°C° 0.3 mm 6 m/s 717 mmHg 64%
17:00 +27°C° 0.3 mm 6 m/s 717 mmHg 65%
18:00 +26°C° 0 mm 6 m/s 717 mmHg 68%
19:00 +24°C° 0 mm 6 m/s 718 mmHg 71%
20:00 +23°C° 0 mm 6 m/s 718 mmHg 74%
21:00 +22°C° 0 mm 6 m/s 718 mmHg 80%
22:00 +22°C° 0 mm 6 m/s 718 mmHg 86%
23:00 +21°C° 0 mm 6 m/s 718 mmHg 91%

22 Maio, Sábado

Tempo Temperatura Precipitação Vento Pressão Humidade
00:00 +21°C° 0 mm 7 m/s 718 mmHg 90%
01:00 +21°C° 0 mm 7 m/s 718 mmHg 89%
02:00 +21°C° 0 mm 7 m/s 718 mmHg 88%
03:00 +21°C° 0 mm 6 m/s 719 mmHg 88%
04:00 +21°C° 0 mm 5 m/s 719 mmHg 88%
05:00 +21°C° 0 mm 5 m/s 719 mmHg 88%
06:00 +21°C° 0 mm 5 m/s 719 mmHg 88%
07:00 +22°C° 0 mm 5 m/s 720 mmHg 88%
08:00 +22°C° 0 mm 5 m/s 720 mmHg 87%
09:00 +23°C° 0.2 mm 6 m/s 720 mmHg 82%
10:00 +26°C° 0.2 mm 6 m/s 720 mmHg 77%
11:00 +27°C° 0.2 mm 7 m/s 720 mmHg 72%
12:00 +27°C° 0.2 mm 6 m/s 720 mmHg 70%
13:00 +28°C° 0.2 mm 6 m/s 719 mmHg 68%
14:00 +28°C° 0.2 mm 6 m/s 719 mmHg 67%
15:00 +27°C° 0.4 mm 6 m/s 718 mmHg 71%
16:00 +26°C° 0.4 mm 6 m/s 718 mmHg 76%
17:00 +26°C° 0.4 mm 7 m/s 718 mmHg 80%
18:00 +24°C° 0.9 mm 7 m/s 718 mmHg 84%
19:00 +23°C° 0.9 mm 7 m/s 718 mmHg 88%
20:00 +22°C° 0.9 mm 7 m/s 718 mmHg 93%
21:00 +22°C° 0.2 mm 7 m/s 718 mmHg 92%
22:00 +22°C° 0.2 mm 7 m/s 718 mmHg 91%
23:00 +21°C° 0.2 mm 8 m/s 718 mmHg 91%

23 Maio, Domingo

Tempo Temperatura Precipitação Vento Pressão Humidade
00:00 +21°C° 0 mm 7 m/s 718 mmHg 89%
01:00 +21°C° 0 mm 7 m/s 718 mmHg 88%
02:00 +21°C° 0 mm 6 m/s 718 mmHg 86%
03:00 +21°C° 0 mm 6 m/s 718 mmHg 87%
04:00 +21°C° 0 mm 5 m/s 718 mmHg 87%
05:00 +20°C° 0 mm 4 m/s 719 mmHg 87%
06:00 +20°C° 0 mm 5 m/s 719 mmHg 88%
07:00 +21°C° 0 mm 5 m/s 719 mmHg 88%
08:00 +21°C° 0 mm 6 m/s 719 mmHg 88%
09:00 +22°C° 0.1 mm 6 m/s 719 mmHg 82%
10:00 +24°C° 0.1 mm 7 m/s 719 mmHg 76%
11:00 +26°C° 0.1 mm 7 m/s 719 mmHg 69%
12:00 +26°C° 0.1 mm 7 m/s 718 mmHg 69%
13:00 +26°C° 0.1 mm 7 m/s 718 mmHg 68%
14:00 +26°C° 0.1 mm 7 m/s 718 mmHg 68%
15:00 +26°C° 0.1 mm 7 m/s 717 mmHg 69%
16:00 +26°C° 0.1 mm 7 m/s 717 mmHg 71%
17:00 +26°C° 0.1 mm 7 m/s 717 mmHg 72%
18:00 +24°C° 0.1 mm 6 m/s 717 mmHg 78%
19:00 +23°C° 0.1 mm 5 m/s 717 mmHg 84%
20:00 +22°C° 0.1 mm 5 m/s 717 mmHg 89%
21:00 +22°C° 0.2 mm 4 m/s 718 mmHg 90%
22:00 +22°C° 0.2 mm 4 m/s 718 mmHg 90%
23:00 +22°C° 0.2 mm 4 m/s 718 mmHg 90%
Mostrar mais

Necessitamos do seu Consentimento

A Meteoprog e os seus Fornecedores de Serviços podem armazenar e aceder a dados pessoais como cookies, identificadores do dispositivo ou outras tecnologias semelhantes existentes no seu dispositivo e processar estes dados para personalizar conteúdos e anúncios, assim como funcionalidades nas redes sociais e análise de tráfego.

  • Armazenar e/ou aceder a informações no seu dispositivo

    Os cookies, identificadores do dispositivo ou outras informações podem ser armazenados ou acedidos no seu dispositivo, para os fins acima indicados.

  • Anúncios e conteúdos personalizados, medição de anúncios e conteúdos, dados sobre o público-alvo e desenvolvimento de produtos

    Os anúncios e os conteúdos podem ser personalizados com base num perfil. Podem ser adicionados dados adicionais para uma maior personalização dos anúncios e dos conteúdos. A eficácia dos anúncios e dos conteúdos pode ser medida. Podem ser obtidas informações sobre o público que visualizou os anúncios e os conteúdos. Estes dados podem ser usados para desenvolver ou melhorar sistemas, softwares ou a experiência do utilizador.

Ao clicar em "Eu concordo”, permitirá o uso de cookies, identificadores do dispositivo e web beacons mencionados ou outras tecnologias semelhantes. As configurações do navegador do seu dispositivo podem ser alteradas.

Para certos fins, podem ser invocados interesses legítimos ao invés de consentimento. Pode ler mais informação sobre este assunto na nossa Política de Privacidade e Cookies.